GW0637 Weather Reports


time (UTC)temp
F
wind
direction
speed
knots
gust
knots
rain 1hr
in
rain 24hr
in
rain mn
in
humidity
%
barometer
mb
20260906225624 61 320 7.0 9.6 0.00 0.02 0.02 86 1015.4
20260906225120 61 286 2.6 7.0 0.00 0.02 0.02 87 1015.5
20260906224615 61 304 4.3 8.7 0.00 0.02 0.02 87 1015.7
20260906224112 60 287 2.6 7.8 0.00 0.02 0.02 87 1015.6
20260906223608 60 314 5.2 7.8 0.00 0.02 0.02 87 1015.7
20260906223107 60 279 6.1 7.0 0.00 0.02 0.02 87 1015.5
20260906222606 60 288 4.3 8.7 0.00 0.02 0.02 88 1015.5
20260906222104 60 320 4.3 8.7 0.00 0.02 0.02 87 1015.5
20260906221602 60 316 3.5 8.7 0.00 0.02 0.02 87 1015.5
20260906221058 60 351 2.6 7.0 0.00 0.02 0.02 87 1015.6
20260906220552 60 321 7.0 8.7 0.00 0.02 0.02 87 1015.7
20260906220048 60 326 4.3 6.1 0.00 0.02 0.02 88 1015.7
20260906215547 60 300 6.1 8.7 0.00 0.02 0.02 88 1015.5
20260906215045 60 314 4.3 7.8 0.00 0.02 0.02 88 1015.5
20260906214544 60 350 6.1 8.7 0.00 0.02 0.02 87 1015.4
20260906214039 60 307 4.3 7.8 0.00 0.02 0.02 87 1015.6
20260906213538 60 323 6.1 7.8 0.00 0.02 0.02 87 1015.5
20260906213033 60 316 5.2 8.7 0.00 0.02 0.02 87 1015.5
20260906212526 60 319 4.3 8.7 0.00 0.02 0.02 87 1015.6
20260906212022 60 337 4.3 7.8 0.00 0.02 0.02 87 1015.6
20260906211516 60 349 7.0 8.7 0.00 0.02 0.02 87 1015.5
20260906211011 60 314 1.7 9.6 0.00 0.02 0.02 87 1015.7
20260906210501 60 322 7.8 13.0 0.00 0.02 0.02 86 1015.6
20260906210000 61 335 7.8 11.3 0.00 0.02 0.02 86 1015.5
20260906205456 60 348 7.8 11.3 0.00 0.02 0.02 86 1015.6
20260906204952 60 286 9.6 12.2 0.00 0.02 0.02 86 1015.5
20260906204451 60 286 9.6 12.2 0.00 0.02 0.02 87 1015.6
20260906203950 60 341 7.0 12.2 0.00 0.02 0.02 87 1015.6
20260906203446 60 309 8.7 11.3 0.00 0.02 0.02 86 1015.6
20260906202944 60 338 6.1 11.3 0.00 0.02 0.02 87 1015.7
20260906202442 60 325 9.6 12.2 0.00 0.02 0.02 87 1015.6
20260906201938 60 349 5.2 11.3 0.00 0.02 0.02 86 1015.8
20260906201432 60 329 5.2 8.7 0.00 0.02 0.02 87 1015.7
20260906200927 60 321 5.2 8.7 0.00 0.02 0.02 87 1015.7
20260906200424 60 340 8.7 11.3 0.00 0.02 0.02 87 1015.6
20260906195923 60 339 8.7 13.0 0.00 0.02 0.02 87 1015.7
20260906195420 60 319 8.7 9.6 0.00 0.02 0.02 86 1015.8
20260906194916 60 342 7.8 12.2 0.00 0.02 0.02 86 1015.8
20260906194411 60 350 7.0 12.2 0.00 0.02 0.02 85 1015.7
20260906193906 61 4 5.2 12.2 0.00 0.02 0.02 85 1015.8
20260906193401 61 339 7.8 9.6 0.00 0.02 0.02 84 1015.7
20260906192856 61 357 7.8 11.3 0.00 0.02 0.02 84 1015.7
20260906192350 60 5 7.8 13.0 0.00 0.02 0.02 83 1015.8
20260906191850 60 335 9.6 12.2 0.00 0.02 0.02 83 1015.6
20260906191345 60 348 8.7 11.3 0.00 0.02 0.02 83 1015.6
20260906190844 61 335 9.6 12.2 0.00 0.02 0.02 83 1015.8
20260906190344 60 23 7.8 13.0 0.00 0.02 0.02 84 1015.7
20260906185839 60 2 8.7 13.0 0.00 0.02 0.02 83 1015.9
20260906185337 59 7 7.8 13.0 0.00 0.02 0.02 85 1016.2
20260906184832 59 357 7.0 11.3 0.00 0.02 0.02 86 1016.2
20260906184327 59 8 7.0 13.0 0.00 0.02 0.02 85 1016.3
20260906183822 58 344 7.8 13.0 0.00 0.02 0.02 87 1016.1
20260906183319 58 359 5.2 9.6 0.00 0.02 0.02 88 1016.4
20260906182819 58 345 7.8 13.0 0.00 0.02 0.02 88 1016.3
20260906182314 58 9 10.4 12.2 0.00 0.02 0.02 88 1016.5
20260906181814 57 348 7.0 12.2 0.00 0.02 0.02 90 1016.6
20260906181311 57 353 8.7 12.2 0.00 0.02 0.02 90 1016.6
20260906180806 56 14 7.0 11.3 0.00 0.02 0.02 91 1016.6
20260906180301 56 12 0.9 11.3 0.00 0.02 0.02 92 1017.0
20260906175758 56 326 7.0 8.7 0.00 0.02 0.02 92 1017.5
20260906175254 55 355 6.1 7.8 0.00 0.02 0.02 92 1017.6
20260906174752 55 340 6.1 11.3 0.00 0.02 0.02 92 1017.9
20260906174252 55 303 9.6 9.6 0.00 0.02 0.02 93 1017.9
20260906173747 55 334 7.8 9.6 0.00 0.02 0.02 93 1017.8
20260906173243 55 306 7.0 11.3 0.00 0.02 0.02 93 1018.3
20260906172742 55 312 6.1 11.3 0.00 0.02 0.02 93 1018.3
20260906172237 55 345 7.0 11.3 0.00 0.02 0.02 94 1018.0
20260906171732 55 338 2.6 9.6 0.00 0.02 0.02 94 1018.1
20260906171228 55 322 1.7 11.3 0.00 0.02 0.02 94 1018.1
20260906170723 55 315 7.8 12.2 0.00 0.02 0.02 94 1018.3
20260906170219 55 307 4.3 9.6 0.00 0.02 0.02 94 1018.4
20260906165715 55 316 7.8 11.3 0.00 0.02 0.02 94 1017.9
20260906165210 54 339 7.8 9.6 0.00 0.02 0.02 94 1018.0
20260906164709 55 341 4.3 11.3 0.00 0.02 0.02 94 1017.7
20260906164204 54 2 9.6 13.9 0.07 0.02 0.02 94 1017.9
20260906163700 54 347 7.0 9.6 0.07 0.02 0.02 94 1017.7
20260906163156 54 318 7.8 12.2 0.00 0.01 0.01 94 1017.9
20260906162653 54 303 7.8 11.3 0.05 0.01 0.01 93 1018.0
20260906162152 55 338 6.1 9.6 0.05 0.01 0.01 93 1018.0
20260906161647 55 327 8.7 12.2 0.00 0.00 0.00 93 1018.3
20260906161146 55 337 8.7 13.9 0.00 0.00 0.00 92 1018.0
20260906160645 55 313 7.8 13.0 0.00 0.00 0.00 92 1018.3
20260906160144 55 348 7.8 14.8 0.00 0.00 0.00 92 1018.1
20260906155642 55 301 10.4 15.6 0.00 0.00 0.00 91 1018.4
20260906155138 55 317 6.1 15.6 0.00 0.00 0.00 91 1018.7
20260906154632 55 312 11.3 13.9 0.00 0.00 0.00 91 1018.5
20260906154127 55 298 8.7 13.9 0.00 0.00 0.00 91 1018.3
20260906153626 55 298 11.3 17.4 0.00 0.00 0.00 91 1017.8
20260906153121 55 325 9.6 14.8 0.00 0.00 0.00 91 1018.3
20260906152621 55 344 9.6 17.4 0.00 0.00 0.00 92 1018.4
20260906152115 55 295 10.4 14.8 0.00 0.00 0.00 92 1018.5
20260906151610 55 317 10.4 14.8 0.00 0.00 0.00 92 1018.5
20260906151106 56 286 8.7 11.3 0.00 0.00 0.00 92 1018.6
20260906150601 57 323 12.2 13.9 0.00 0.00 0.00 92 1018.4
20260906150056 57 288 10.4 13.9 0.00 0.00 0.00 93 1018.3
20260906145555 57 307 7.0 7.8 0.00 0.00 0.00 93 1018.3
20260906145050 57 312 0.9 4.3 0.00 0.00 0.00 93 1018.5
20260906144538 57 306 0.0 0.0 0.00 0.00 0.00 93 1018.3
20260906144034 56 346 0.0 2.6 0.00 0.00 0.00 93 1018.3
20260906143528 56 354 1.7 6.1 0.00 0.00 0.00 93 1017.9
20260906143025 56 349 4.3 6.1 0.00 0.00 0.00 93 1018.0
20260906142519 56 354 0.9 1.7 0.00 0.00 0.00 93 1018.1
20260906142015 56 328 1.7 4.3 0.00 0.00 0.00 93 1018.1
20260906141513 56 310 4.3 6.1 0.00 0.00 0.00 93 1018.5
20260906141009 56 295 5.2 7.8 0.00 0.00 0.00 93 1018.6
20260906140503 56 307 4.3 7.0 0.00 0.00 0.00 93 1018.3
20260906140002 56 307 7.0 7.8 0.00 0.00 0.00 93 1018.1
20260906135459 56 325 2.6 6.1 0.00 0.00 0.00 93 1018.0
20260906134955 56 331 4.3 6.1 0.00 0.00 0.00 93 1017.9
20260906134450 56 313 0.9 2.6 0.00 0.00 0.00 94 1018.0
20260906133945 56 311 0.0 4.3 0.00 0.00 0.00 93 1017.9
20260906133441 56 279 0.0 2.6 0.00 0.00 0.00 93 1018.1
20260906132936 56 309 2.6 8.7 0.00 0.00 0.00 93 1018.1
20260906132431 57 334 7.0 7.8 0.00 0.00 0.00 93 1018.1
20260906131927 57 328 6.1 8.7 0.00 0.00 0.00 92 1018.1
20260906131422 57 331 0.0 5.2 0.00 0.00 0.00 92 1018.3
20260906130918 57 357 2.6 9.6 0.00 0.00 0.00 92 1018.3
20260906130416 57 9 0.9 7.8 0.00 0.00 0.00 93 1017.9
20260906125911 57 354 7.0 7.8 0.00 0.00 0.00 94 1018.1
20260906125408 56 10 4.3 7.8 0.00 0.00 0.00 94 1018.1
20260906124903 55 18 2.6 4.3 0.00 0.00 0.00 95 1017.9
20260906124359 55 348 0.0 0.0 0.00 0.00 0.00 95 1018.3
20260906123858 55 298 0.0 0.9 0.00 0.00 0.00 95 1018.3
20260906123353 55 319 0.0 1.7 0.00 0.00 0.00 95 1018.4
20260906122852 55 320 2.6 5.2 0.00 0.00 0.00 95 1018.4
20260906122347 55 308 0.0 0.0 0.00 0.00 0.00 95 1018.7
20260906121844 55 294 0.0 0.0 0.00 0.00 0.00 95 1018.8
20260906121340 55 283 0.0 0.0 0.00 0.00 0.00 95 1018.7
20260906120836 55 305 0.0 0.0 0.00 0.00 0.00 95 1018.6
20260906120331 55 296 0.0 0.0 0.00 0.00 0.00 95 1018.7
20260906115827 55 304 0.0 1.7 0.00 0.00 0.00 95 1018.7
20260906115323 55 296 0.0 2.6 0.00 0.00 0.00 95 1018.8
20260906114822 55 308 0.0 0.0 0.00 0.00 0.00 95 1018.7
20260906114317 55 312 0.0 0.0 0.00 0.00 0.00 95 1018.5
20260906113812 55 349 0.0 0.0 0.00 0.00 0.00 95 1018.6
20260906113311 55 324 2.6 5.2 0.00 0.00 0.00 95 1018.5
20260906112807 55 10 3.5 7.0 0.00 0.00 0.00 95 1018.3
20260906112306 55 1 0.0 1.7 0.00 0.00 0.00 94 1018.6
20260906111803 55 351 0.9 5.2 0.00 0.00 0.00 94 1018.4
20260906111301 55 11 0.9 5.2 0.00 0.00 0.00 94 1018.1
20260906110757 55 351 1.7 6.1 0.00 0.00 0.00 94 1018.5
20260906110253 55 322 6.1 7.8 0.00 0.00 0.00 94 1018.3
20260906105751 55 299 5.2 7.8 0.00 0.00 0.00 94 1018.6
20260906105242 55 340 7.0 8.7 0.00 0.00 0.00 94 1018.5
20260906104737 55 345 0.0 7.0 0.00 0.00 0.00 94 1018.7
20260906104236 55 317 1.7 7.0 0.00 0.00 0.00 94 1018.5
20260906103734 55 315 4.3 7.8 0.00 0.00 0.00 94 1018.6
20260906103228 54 345 4.3 9.6 0.00 0.00 0.00 94 1018.5
20260906102724 54 3 9.6 12.2 0.00 0.00 0.00 94 1018.6
20260906102223 54 6 10.4 12.2 0.00 0.00 0.00 94 1018.7
20260906101718 54 342 9.6 12.2 0.00 0.00 0.00 94 1018.7
20260906101213 54 8 13.0 18.2 0.00 0.00 0.00 94 1018.6
20260906100709 54 350 9.6 14.8 0.00 0.00 0.00 94 1018.6
20260906100209 54 7 7.8 17.4 0.00 0.00 0.00 94 1018.5
20260906095703 54 10 12.2 14.8 0.00 0.00 0.00 94 1018.5
20260906095159 54 342 10.4 13.0 0.00 0.00 0.00 94 1018.5
20260906094657 54 309 7.8 13.9 0.00 0.00 0.00 94 1018.7
20260906094153 54 0 7.8 9.6 0.00 0.00 0.00 94 1019.1
20260906093649 54 324 5.2 12.2 0.00 0.00 0.00 94 1019.0
20260906093150 54 341 6.1 13.0 0.00 0.00 0.00 94 1019.2
20260906092644 54 352 7.0 12.2 0.00 0.00 0.00 94 1019.2
20260906092139 54 349 7.8 13.9 0.00 0.00 0.00 94 1019.2
20260906091635 54 310 6.1 9.6 0.00 0.00 0.00 94 1019.4
20260906091132 54 328 5.2 13.0 0.00 0.00 0.00 94 1019.5
20260906090627 54 332 7.8 9.6 0.00 0.00 0.00 94 1019.2
20260906090126 54 11 8.7 14.8 0.00 0.00 0.00 94 1019.2
20260906085626 54 7 10.4 15.6 0.00 0.00 0.00 94 1019.4
20260906085120 54 329 11.3 15.6 0.00 0.00 0.00 94 1019.5
20260906084615 54 338 12.2 14.8 0.00 0.00 0.00 94 1019.5
20260906084114 54 341 7.0 9.6 0.00 0.00 0.00 94 1019.5
20260906083610 54 333 4.3 13.9 0.00 0.00 0.00 94 1019.6
20260906083109 54 317 7.0 13.0 0.00 0.00 0.00 94 1019.6
20260906082605 54 332 7.8 11.3 0.00 0.00 0.00 94 1019.7
20260906082100 54 341 6.1 9.6 0.00 0.00 0.00 94 1019.7
20260906081556 54 335 6.1 9.6 0.00 0.00 0.00 94 1019.7
20260906081051 54 310 6.1 9.6 0.00 0.00 0.00 94 1019.6
20260906080548 54 333 9.6 12.2 0.00 0.00 0.00 94 1019.8
20260906080043 54 339 7.8 9.6 0.00 0.00 0.00 94 1019.7
20260906075537 54 280 7.0 9.6 0.00 0.00 0.00 94 1019.7
20260906075032 54 343 7.0 11.3 0.00 0.00 0.00 94 1019.8
20260906074527 54 341 5.2 7.8 0.00 0.00 0.00 94 1019.7
20260906074025 54 325 4.3 7.0 0.00 0.00 0.00 94 1020.0
20260906073521 54 306 4.3 8.7 0.00 0.00 0.00 94 1020.0
20260906073017 55 310 2.6 9.6 0.00 0.00 0.00 93 1020.2
20260906072511 55 301 2.6 8.7 0.00 0.00 0.00 93 1020.1
20260906072008 55 4 7.8 13.0 0.00 0.00 0.00 93 1020.0
20260906071503 55 352 7.0 11.3 0.00 0.00 0.00 93 1020.3
20260906070958 55 335 7.8 9.6 0.00 0.00 0.00 93 1020.1
20260906070454 55 342 8.7 13.0 0.00 0.00 0.00 93 1020.5
20260906065950 55 319 7.8 11.3 0.00 0.00 0.00 93 1020.6
20260906065444 55 322 3.5 8.7 0.00 0.00 0.00 94 1020.7
20260906064939 55 301 7.8 9.6 0.00 0.00 0.00 94 1020.6
20260906064435 55 321 7.8 9.6 0.00 0.00 0.00 94 1020.9
20260906063930 55 324 7.8 8.7 0.00 0.00 0.00 93 1020.9
20260906063426 55 315 7.8 12.2 0.00 0.00 0.00 93 1021.0
20260906062921 54 302 7.0 9.6 0.00 0.00 0.00 93 1021.0
20260906062421 54 314 7.0 9.6 0.00 0.00 0.00 93 1020.5
20260906061915 54 334 7.8 12.2 0.00 0.00 0.00 93 1020.2
20260906061406 55 336 7.8 11.3 0.00 0.00 0.00 93 1020.2
20260906060900 55 319 9.6 12.2 0.00 0.00 0.00 93 1020.3
20260906060358 55 328 7.0 11.3 0.00 0.00 0.00 92 1020.3
20260906055854 54 4 10.4 13.0 0.00 0.13 0.13 93 1020.2
20260906055349 54 334 6.1 11.3 0.00 0.13 0.13 93 1020.3
20260906054844 54 336 6.1 7.8 0.00 0.13 0.13 93 1020.5
20260906054339 54 338 3.5 8.7 0.12 0.13 0.13 93 1020.3
20260906053836 55 345 0.9 6.1 0.24 0.13 0.13 92 1020.3
20260906053331 55 326 6.1 11.3 0.05 0.10 0.10 92 1020.2
20260906052826 55 328 9.6 13.0 0.00 0.09 0.09 91 1020.1
20260906052323 55 277 7.0 12.2 0.00 0.09 0.09 92 1021.4
20260906051820 55 252 6.1 9.6 0.00 0.09 0.09 91 1021.7
20260906051319 55 301 3.5 7.0 0.00 0.09 0.09 91 1020.8
20260906050815 55 312 5.2 8.7 0.00 0.09 0.09 91 1020.6
20260906050310 55 325 4.3 7.8 0.07 0.09 0.09 91 1020.0
20260906045808 55 347 1.7 11.3 0.00 0.08 0.08 91 1020.0
20260906045305 55 336 7.0 11.3 0.00 0.08 0.08 92 1019.7
20260906044759 55 298 4.3 7.0 0.00 0.08 0.08 91 1019.9
20260906044254 55 310 7.0 12.2 0.00 0.08 0.08 91 1020.1
20260906043750 55 323 7.8 13.0 0.00 0.08 0.08 90 1019.8
20260906043246 56 351 5.2 9.6 0.00 0.08 0.08 90 1020.0
20260906042745 56 348 7.8 11.3 0.00 0.08 0.08 89 1020.0
20260906042244 55 346 6.1 9.6 0.00 0.08 0.08 90 1019.7
20260906041740 55 322 5.2 9.6 0.00 0.08 0.08 89 1019.8
20260906041235 56 278 9.6 14.8 0.17 0.08 0.08 88 1019.5
20260906040731 57 340 13.0 19.1 0.19 0.07 0.07 85 1019.7
20260906040226 58 323 7.0 9.6 0.00 0.04 0.04 81 1021.2
20260906035721 58 282 2.6 7.0 0.00 0.04 0.04 79 1021.8
20260906035217 57 294 1.7 6.1 0.00 0.04 0.04 79 1021.3
20260906034716 57 286 5.2 9.6 0.00 0.04 0.04 80 1020.7
20260906034211 56 314 6.1 8.7 0.00 0.04 0.04 81 1019.9
20260906033707 56 324 6.1 8.7 0.00 0.04 0.04 81 1019.7
20260906033207 56 325 6.1 8.7 0.00 0.04 0.04 81 1019.8
20260906032704 57 333 7.8 8.7 0.00 0.04 0.04 81 1019.6
20260906032158 56 301 6.1 8.7 0.00 0.04 0.04 80 1019.5
20260906031653 56 339 6.1 7.8 0.00 0.04 0.04 80 1019.5
20260906031149 56 326 4.3 7.8 0.00 0.04 0.04 80 1019.7
20260906030648 56 327 5.2 7.0 0.00 0.04 0.04 80 1019.4
20260906030144 56 348 5.2 7.0 0.00 0.04 0.04 79 1019.2
20260906025643 57 320 7.0 8.7 0.00 0.04 0.04 78 1019.1
20260906025142 57 332 4.3 9.6 0.00 0.04 0.04 77 1019.0
20260906024637 57 339 7.8 9.6 0.00 0.04 0.04 77 1019.2
20260906024136 58 358 7.0 9.6 0.00 0.04 0.04 77 1019.1
20260906023633 58 354 5.2 9.6 0.00 0.04 0.04 77 1019.0
20260906023132 58 5 6.1 9.6 0.00 0.04 0.04 76 1018.9
20260906022627 58 345 7.8 11.3 0.00 0.04 0.04 76 1019.0
20260906022123 59 356 7.0 13.0 0.00 0.04 0.04 75 1019.0
20260906021619 59 1 8.7 12.2 0.00 0.04 0.04 74 1018.9
20260906021117 59 0 7.0 8.7 0.00 0.04 0.04 73 1019.0
20260906020617 59 353 8.7 9.6 0.00 0.04 0.04 73 1019.0
20260906020112 60 344 7.0 9.6 0.00 0.04 0.04 72 1018.9
20260906015606 60 4 7.0 11.3 0.00 0.04 0.04 72 1018.8
20260906015105 60 340 8.7 9.6 0.00 0.04 0.04 72 1018.7
20260906014600 60 325 3.5 8.7 0.00 0.04 0.04 71 1018.7
20260906014056 60 334 5.2 9.6 0.00 0.04 0.04 70 1018.6
20260906013552 61 332 7.0 12.2 0.00 0.04 0.04 69 1018.8
20260906013047 61 341 7.0 11.3 0.00 0.04 0.04 69 1018.6
20260906012542 61 343 5.2 8.7 0.00 0.04 0.04 69 1018.5
20260906012041 61 352 4.3 12.2 0.00 0.04 0.04 67 1018.4
20260906011537 62 339 7.0 11.3 0.00 0.04 0.04 68 1018.5
20260906011037 62 347 6.1 11.3 0.00 0.04 0.04 68 1018.6
20260906010533 62 330 8.7 13.0 0.00 0.04 0.04 67 1018.5
20260906010029 63 308 7.0 11.3 0.00 0.04 0.04 67 1018.7
20260906005528 63 304 7.0 14.8 0.00 0.04 0.04 67 1018.6
20260906005027 63 7 7.8 13.0 0.00 0.04 0.04 66 1018.5
20260906004526 63 323 13.0 19.1 0.00 0.04 0.04 66 1018.5
20260906004021 64 281 9.6 15.6 0.00 0.04 0.04 66 1018.4
20260906003516 64 7 7.8 11.3 0.00 0.04 0.04 66 1018.3
20260906003013 64 337 12.2 14.8 0.00 0.04 0.04 67 1018.6
20260906002507 64 310 10.4 15.6 0.00 0.04 0.04 67 1018.7
20260906002002 64 347 9.6 14.8 0.00 0.04 0.04 66 1018.7
20260906001458 64 337 8.7 13.0 0.00 0.04 0.04 66 1018.8
20260906000952 65 352 10.4 14.8 0.00 0.04 0.04 66 1018.7
20260906000448 65 313 9.6 13.0 0.00 0.04 0.04 65 1018.7
20260905235941 65 357 7.0 13.0 0.00 0.04 0.04 63 1018.5
20260905235436 65 352 9.6 13.0 0.00 0.04 0.04 63 1018.7
20260905234931 65 334 9.6 12.2 0.00 0.04 0.04 62 1018.8
20260905234427 66 324 9.6 14.8 0.00 0.04 0.04 62 1018.8
20260905233921 65 336 8.7 14.8 0.00 0.04 0.04 64 1018.7
20260905233416 66 318 9.6 14.8 0.00 0.04 0.04 64 1018.5
20260905232915 66 309 10.4 13.0 0.00 0.04 0.04 63 1018.4
20260905232411 66 302 8.7 13.9 0.00 0.04 0.04 63 1018.5
20260905231907 66 333 9.6 13.0 0.00 0.04 0.04 62 1018.5
20260905231403 67 341 7.8 14.8 0.00 0.04 0.04 59 1018.5
20260905230859 67 1 7.0 17.4 0.00 0.04 0.04 60 1018.5
20260905230356 67 327 10.4 13.9 0.00 0.04 0.04 59 1018.7